Kuchera_Ratio
0.0 0.0 0.0 0.0 0.0 0.0 0.0 0.0 0.0 0.0 0.0 0.0 0.0 0.0 0.0 0.0 0.0 0.0 0.0 0.0 0.0 0.0 0.0 0.0 0.0 0.0 0.0 0.0 0.0 0.0 0.0 0.0 0.0 0.0 0.0 0.0 0.0 0.0 0.0 0.0 0.0 0.0 0.0 0.0 0.0 0.0 0.0 0.0 0.0 0.0 0.0 0.0 0.0 0.0 0.0 0.0 0.0 0.0 0.0 0.0 0.0 0.0 0.0 0.0 0.0 0.0 0.0 0.0 0.0 0.0 0.0 0.0 0.0 0.0 0.0 0.0 0.0 0.0 0.0 0.0 0.0 0.0 0.0 0.0 0.0 0.0 0.0 0.0
0.0 0.0 0.0 0.0 0.0 0.0 0.0 0.0 0.0 0.0 0.0 0.0 0.0 0.0 0.0 0.0 0.0 0.0 0.0 0.0 0.0 0.0 0.0 0.0 0.0 0.0 0.0 0.0 0.0 0.0 0.0 0.0 0.0 0.0 0.0 0.0 0.0 0.0 0.0 0.0 0.0 0.0 0.0 0.0 0.0 0.0 0.0 0.0 0.0 0.0 0.0 0.0 0.0 0.0 0.0 0.0 0.0 0.0 0.0 0.0 0.0 0.0 0.0 0.0 0.0 0.0 0.0 0.0 0.0 0.0 0.0 0.0 0.0 0.0 0.0 0.0 0.0 0.0 0.0 0.0 0.0 0.0 0.0 0.0 0.0 0.0 0.0 0.0
0.0 0.0 0.0 0.0 0.0 0.0 0.0 0.0 0.0 0.0 0.0 0.0 0.0 0.0 0.0 0.0 0.0 0.0 0.0 0.0 0.0 0.0 0.0 0.0 0.0 0.0 0.0 0.0 0.0 0.0 0.0 0.0 0.0 0.0 0.0 0.0 0.0 0.0 0.0 0.0 0.0 0.0 0.0 0.0 0.0 0.0 0.0 0.0 0.0 0.0 0.0 0.0 0.0 0.0 0.0 0.0 0.0 0.0 0.0 0.0 0.0 0.0 0.0 0.0 0.0 0.0 0.0 0.0 0.0 0.0 0.0 0.0 0.0 0.0 0.0 0.0 0.0 0.0 0.0 0.0 0.0 0.0 0.0 0.0 0.0 0.0 0.0 0.0
0.0 0.0 0.0 0.0 0.0 0.0 0.0 0.0 0.0 0.0 0.0 0.0 0.0 0.0 0.0 0.0 0.0 0.0 0.0 0.0 0.0 0.0 0.0 0.0 0.0 0.0 0.0 0.0 0.0 0.0 0.0 0.0 0.0 0.0 0.0 0.0 0.0 0.0 0.0 0.0 0.0 0.0 0.0 0.0 0.0 0.0 0.0 0.0 0.0 0.0 0.0 0.0 0.0 0.0 0.0 0.0 0.0 0.0 0.0 0.0 0.0 0.0 0.0 0.0 0.0 0.0 0.0 0.0 0.0 0.0 0.0 0.0 0.0 0.0 0.0 0.0 0.0 0.0 0.0 0.0 0.0 0.0 0.0 0.0 0.0 0.0 0.0 0.0
0.0 0.0 0.0 0.0 0.0 0.0 0.0 0.0 0.0 0.0 0.0 0.0 0.0 0.0 0.0 0.0 0.0 0.0 0.0 0.0 0.0 0.0 0.0 0.0 0.0 0.0 0.0 0.0 0.0 0.0 0.0 0.0 0.0 0.0 0.0 0.0 0.0 0.0 0.0 0.0 0.0 0.0 0.0 0.0 0.0 0.0 0.0 0.0 0.0 0.0 0.0 0.0 0.0 0.0 0.0 0.0 0.0 0.0 0.0 0.0 0.0 0.0 0.0 0.0 0.0 0.0 0.0 0.0 0.0 0.0 0.0 0.0 0.0 0.0 0.0 0.0 0.0 0.0 0.0 0.0 0.0 0.0 0.0 0.0 0.0 0.0 0.0 0.0
0.0 0.0 0.0 0.0 0.0 0.0 0.0 0.0 0.0 0.0 0.0 0.0 0.0 0.0 0.0 0.0 0.0 0.0 0.0 0.0 0.0 0.0 0.0 0.0 0.0 0.0 0.0 0.0 0.0 0.0 0.0 0.0 0.0 0.0 0.0 0.0 0.0 0.0 0.0 0.0 0.0 0.0 0.0 0.0 0.0 0.0 0.0 0.0 0.0 0.0 0.0 0.0 0.0 0.0 0.0 0.0 0.0 0.0 0.0 0.0 0.0 0.0 0.0 0.0 0.0 0.0 0.0 0.0 0.0 0.0 0.0 0.0 0.0 0.0 0.0 0.0 0.0 0.0 0.0 0.0 0.0 0.0 0.0 0.0 0.0 0.0 0.0 0.0
0.0 0.0 0.0 0.0 0.0 0.0 0.0 0.0 0.0 0.0 0.0 0.0 0.0 0.0 0.0 0.0 0.0 0.0 0.0 0.0 0.0 0.0 0.0 0.0 0.0 0.0 0.0 0.0 0.0 0.0 0.0 0.0 0.0 0.0 0.0 0.0 0.0 0.0 0.0 0.0 0.0 0.0 0.0 0.0 0.0 0.0 0.0 0.0 0.0 0.0 0.0 0.0 0.0 0.0 0.0 0.0 0.0 0.0 0.0 0.0 0.0 0.0 0.0 0.0 0.0 0.0 0.0 0.0 0.0 0.0 0.0 0.0 0.0 0.0 0.0 0.0 0.0 0.0 0.0 0.0 0.0 0.0 0.0 0.0 0.0 0.0 0.0 0.0
0.0 0.0 0.0 0.0 0.0 0.0 0.0 0.0 0.0 0.0 0.0 0.0 0.0 0.0 0.0 0.0 0.0 0.0 0.0 0.0 0.0 0.0 0.0 0.0 0.0 0.0 0.0 0.0 0.0 0.0 0.0 0.0 0.0 0.0 0.0 0.0 0.0 0.0 0.0 0.0 0.0 0.0 0.0 0.0 0.0 0.0 0.0 0.0 0.0 0.0 0.0 0.0 0.0 0.0 0.0 0.0 0.0 0.0 0.0 0.0 0.0 0.0 0.0 0.0 0.0 0.0 0.0 0.0 0.0 0.0 0.0 0.0 0.0 0.0 0.0 0.0 0.0 0.0 0.0 0.0 0.0 0.0 0.0 0.0 0.0 0.0 0.0 0.0
0.0 0.0 0.0 0.0 0.0 0.0 0.0 0.0 0.0 0.0 0.0 0.0 0.0 0.0 0.0 0.0 0.0 0.0 0.0 0.0 0.0 0.0 0.0 0.0 0.0 0.0 0.0 0.0 0.0 0.0 0.0 0.0 0.0 0.0 0.0 0.0 0.0 0.0 0.0 0.0 0.0 0.0 0.0 0.0 0.0 0.0 0.0 0.0 0.0 0.0 0.0 0.0 0.0 0.0 0.0 0.0 0.0 0.0 0.0 0.0 0.0 0.0 0.0 0.0 0.0 0.0 0.0 0.0 0.0 0.0 0.0 0.0 0.0 0.0 0.0 0.0 0.0 0.0 0.0 0.0 0.0 0.0 0.0 0.0 0.0 0.0 0.0 0.0
0.0 0.0 0.0 0.0 0.0 0.0 0.0 0.0 0.0 0.0 0.0 0.0 0.0 0.0 0.0 0.0 0.0 0.0 0.0 0.0 0.0 0.0 0.0 0.0 0.0 0.0 0.0 0.0 0.0 0.0 0.0 0.0 0.0 0.0 0.0 0.0 0.0 0.0 0.0 0.0 0.0 0.0 0.0 0.0 0.0 0.0 0.0 0.0 0.0 0.0 0.0 0.0 0.0 0.0 0.0 0.0 0.0 0.0 0.0 0.0 0.0 0.0 0.0 0.0 0.0 0.0 0.0 0.0 0.0 0.0 0.0 0.0 0.0 0.0 0.0 0.0 0.0 0.0 0.0 0.0 0.0 0.0 0.0 0.0 0.0 0.0 0.0 0.0
0.0 0.0 0.0 0.0 0.0 0.0 0.0 0.0 0.0 0.0 0.0 0.0 0.0 0.0 0.0 0.0 0.0 0.0 0.0 0.0 0.0 0.0 0.0 0.0 0.0 0.0 0.0 0.0 0.0 0.0 0.0 0.0 0.0 0.0 0.0 0.0 0.0 0.0 0.0 0.0 0.0 0.0 0.0 0.0 0.0 0.0 0.0 0.0 0.0 0.0 0.0 0.0 0.0 0.0 0.0 0.0 0.0 0.0 0.0 0.0 0.0 0.0 0.0 0.0 0.0 0.0 0.0 0.0 0.0 0.0 0.0 0.0 0.0 0.0 0.0 0.0 0.0 0.0 0.0 0.0 0.0 0.0 0.0 0.0 0.0 0.0 0.0 0.0
0.0 0.0 0.0 0.0 0.0 0.0 0.0 0.0 0.0 0.0 0.0 0.0 0.0 0.0 0.0 0.0 0.0 0.0 0.0 0.0 0.0 0.0 0.0 0.0 0.0 0.0 0.0 0.0 0.0 0.0 0.0 0.0 0.0 0.0 0.0 0.0 0.0 0.0 0.0 0.0 0.0 0.0 0.0 0.0 0.0 0.0 0.0 0.0 0.0 0.0 0.0 0.0 0.0 0.0 0.0 0.0 0.0 0.0 0.0 0.0 0.0 0.0 0.0 0.0 0.0 0.0 0.0 0.0 0.0 0.0 0.0 0.0 0.0 0.0 0.0 0.0 0.0 0.0 0.0 0.0 0.0 0.0 0.0 0.0 0.0 0.0 0.0 0.0
0.0 0.0 0.0 0.0 0.0 0.0 0.0 0.0 0.0 0.0 0.0 0.0 0.0 0.0 0.0 0.0 0.0 0.0 0.0 0.0 0.0 0.0 0.0 0.0 0.0 0.0 0.0 0.0 0.0 0.0 0.0 0.0 0.0 0.0 0.0 0.0 0.0 0.0 0.0 0.0 0.0 0.0 0.0 0.0 0.0 0.0 0.0 0.0 0.0 0.0 0.0 0.0 0.0 0.0 0.0 0.0 0.0 0.0 0.0 0.0 0.0 0.0 0.0 0.0 0.0 0.0 0.0 0.0 0.0 0.0 6.5 0.0 0.0 0.0 0.0 0.0 0.0 0.0 0.0 0.0 0.0 0.0 0.0 0.0 0.0 0.0 0.0 0.0
0.0 0.0 0.0 0.0 0.0 0.0 0.0 0.0 0.0 0.0 0.0 0.0 0.0 0.0 0.0 0.0 0.0 0.0 0.0 0.0 0.0 0.0 0.0 0.0 0.0 0.0 0.0 0.0 0.0 0.0 0.0 0.0 0.0 0.0 0.0 0.0 0.0 0.0 0.0 0.0 0.0 0.0 0.0 0.0 0.0 0.0 0.0 0.0 0.0 0.0 0.0 0.0 0.0 0.0 0.0 0.0 0.0 0.0 0.0 0.0 0.0 0.0 0.0 0.0 0.0 0.0 0.0 0.0 0.0 0.0 7.5 0.0 0.0 0.0 0.0 0.0 0.0 0.0 0.0 0.0 0.0 0.0 0.0 0.0 0.0 0.0 0.0 0.0
0.0 0.0 0.0 0.0 0.0 0.0 0.0 0.0 0.0 0.0 0.0 0.0 0.0 0.0 0.0 0.0 0.0 0.0 0.0 0.0 0.0 0.0 0.0 0.0 0.0 0.0 0.0 0.0 0.0 0.0 0.0 0.0 0.0 0.0 0.0 0.0 0.0 0.0 0.0 0.0 0.0 0.0 0.0 0.0 0.0 0.0 0.0 0.0 0.0 0.0 0.0 0.0 0.0 0.0 0.0 0.0 0.0 0.0 0.0 0.1 0.0 2.1 0.0 0.0 0.0 0.0 0.0 0.0 0.0 0.0 5.4 0.0 0.0 0.0 0.0 0.0 0.0 0.0 0.0 0.0 0.0 0.0 0.0 0.0 0.0 0.0 0.0 0.0
0.0 0.0 0.0 0.0 0.0 0.0 0.0 0.0 0.0 0.0 0.0 0.0 0.0 0.0 0.0 0.0 0.0 0.0 0.0 0.0 0.0 0.0 0.0 0.0 0.0 0.0 0.0 0.0 0.0 0.0 0.0 0.0 0.0 0.0 0.0 0.0 0.0 0.0 0.0 0.0 0.0 0.0 0.0 0.0 0.0 0.0 0.0 0.0 0.0 0.0 0.0 0.0 0.0 0.0 0.0 0.0 0.0 0.0 0.0 5.2 3.8 0.0 0.0 0.0 0.0 0.0 0.0 0.0 0.0 0.0 1.3 0.0 0.0 0.0 0.0 0.0 0.0 0.0 0.0 0.0 0.0 0.0 0.0 0.0 0.0 0.0 0.0 0.0
0.0 0.0 0.0 0.0 0.0 0.0 0.0 0.0 0.0 0.0 0.0 0.0 0.0 0.0 0.0 0.0 0.0 0.0 0.0 0.0 0.0 0.0 0.0 0.0 0.0 0.0 0.0 0.0 0.0 0.0 0.0 0.0 0.0 0.0 0.0 0.0 0.0 0.0 0.0 0.0 0.0 0.0 0.0 0.0 0.0 0.0 0.0 0.0 0.0 0.0 0.0 0.0 0.0 0.0 0.0 2.9 3.7 3.5 0.0 3.6 0.0 5.9 0.0 3.3 0.0 0.0 0.0 0.0 0.0 0.0 0.0 0.0 0.0 0.0 0.0 0.0 0.0 0.0 0.0 0.0 0.0 0.0 0.0 0.0 0.0 0.0 0.0 0.0
0.0 0.0 0.0 0.0 0.0 0.0 0.0 0.0 0.0 0.0 0.0 0.0 0.0 0.0 0.0 0.0 0.0 0.0 0.0 0.0 0.0 0.0 0.0 0.0 0.0 0.0 0.0 0.0 0.0 0.0 0.0 0.0 0.0 0.0 0.0 0.0 0.0 0.0 0.0 0.0 0.0 0.0 0.0 0.0 0.0 0.0 0.0 0.0 0.0 0.0 0.0 0.0 0.0 0.0 3.5 5.6 6.7 5.5 4.5 6.9 4.6 1.3 0.0 0.0 0.0 0.0 0.0 0.0 0.0 0.0 0.0 0.0 0.0 0.0 0.0 0.0 0.0 0.0 0.0 0.0 0.0 0.0 0.0 0.0 0.0 0.0 0.0 0.0
0.0 0.0 0.0 0.0 0.0 0.0 0.0 0.0 0.0 0.0 0.0 0.0 0.0 0.0 0.0 0.0 0.0 0.0 0.0 0.0 0.0 0.0 0.0 0.0 0.0 0.0 0.0 0.0 0.0 0.0 0.0 0.0 0.0 0.0 0.0 0.0 0.0 0.0 0.0 0.0 0.0 0.0 0.0 0.0 0.0 0.0 0.0 0.0 0.0 0.0 0.0 0.0 0.0 0.0 4.6 2.8 0.0 0.6 0.0 5.8 3.8 5.8 1.9 0.0 0.0 0.0 0.0 0.0 0.0 0.0 0.0 0.0 0.0 0.0 0.0 0.0 0.0 0.0 0.0 0.0 0.0 0.0 0.0 0.0 0.0 0.0 0.0 0.0
0.0 0.0 0.0 0.0 0.0 0.0 0.0 0.0 0.0 0.0 0.0 0.0 0.0 0.0 0.0 0.0 0.0 0.0 0.0 0.0 0.0 0.0 0.0 0.0 0.0 0.0 0.0 0.0 0.0 0.0 0.0 0.0 0.0 0.0 0.0 0.0 0.0 0.0 0.0 0.0 0.0 0.0 0.0 0.0 0.0 0.0 0.0 0.0 1.4 3.1 4.0 0.0 0.0 0.0 0.0 0.0 0.0 0.0 0.0 3.6 2.5 1.8 0.0 0.0 0.0 0.0 0.0 0.0 0.0 0.0 0.0 0.0 0.0 0.0 0.0 0.0 0.0 0.0 0.0 0.0 0.0 0.0 0.0 0.0 0.0 0.0 0.0 0.0
0.0 0.0 0.0 0.0 0.0 0.0 0.0 0.0 0.0 0.0 0.0 0.0 0.0 0.0 0.0 0.0 0.0 0.0 0.0 0.0 0.0 0.0 0.0 0.0 0.0 0.0 0.0 0.0 0.0 0.0 0.0 0.0 0.0 0.0 0.0 0.0 0.0 0.0 0.0 0.0 0.0 0.0 0.0 0.0 0.0 0.0 0.0 0.0 2.1 0.0 0.0 0.0 0.0 0.0 0.0 0.0 0.0 0.0 2.4 4.6 5.6 1.0 3.3 0.0 0.0 0.0 0.0 0.0 0.4 0.0 0.0 0.0 0.0 0.0 0.0 0.0 0.0 0.0 0.0 0.0 0.0 0.0 0.0 0.0 0.0 0.0 0.0 0.0
0.0 0.0 0.0 0.0 0.0 0.0 0.0 0.0 0.0 0.0 0.0 0.0 0.0 0.0 0.0 0.0 0.0 0.0 0.0 0.0 0.0 0.0 0.0 0.0 0.0 0.0 0.0 0.0 0.0 0.0 0.0 0.0 0.0 0.0 0.0 0.0 0.0 0.0 0.0 0.0 0.0 0.0 0.0 0.0 0.0 0.0 0.0 2.3 0.0 0.0 0.0 0.0 0.0 0.0 0.0 0.0 0.0 0.0 3.5 5.2 7.4 2.9 0.0 0.0 0.0 0.0 0.0 0.0 0.0 0.0 0.0 0.0 0.0 0.0 0.0 0.0 0.0 0.0 0.0 0.0 0.0 0.0 0.0 0.0 0.0 0.0 0.0 0.0
0.0 0.0 0.0 0.0 0.0 0.0 0.0 0.0 0.0 0.0 0.0 0.0 0.0 0.0 0.0 0.0 0.0 0.0 0.0 0.0 0.0 0.0 0.0 0.0 0.0 0.0 0.0 0.0 0.0 0.0 0.0 0.0 0.0 0.0 0.0 0.0 0.0 0.0 0.0 0.0 0.0 0.0 0.0 0.0 0.0 0.0 1.5 0.0 0.0 0.0 0.0 0.0 0.0 0.0 0.0 0.0 0.0 1.7 2.1 6.3 8.7 2.3 5.6 9.8 0.0 0.0 0.0 0.0 1.5 0.0 1.5 0.0 0.0 0.0 0.0 0.0 0.0 0.0 0.0 0.0 0.0 0.0 0.1 0.4 0.0 0.0 0.3 0.0
0.0 0.0 0.0 0.0 0.0 0.0 0.0 0.0 0.0 0.0 0.0 0.0 0.0 0.0 0.0 0.0 0.0 0.0 0.0 0.0 0.0 0.0 0.0 0.0 0.0 0.0 0.0 0.0 0.0 0.0 0.0 0.0 0.0 0.0 0.0 0.0 0.0 0.0 0.0 0.0 0.0 0.0 0.0 0.0 0.0 0.0 0.0 0.0 0.0 0.0 0.0 0.0 0.0 0.0 0.0 1.5 4.0 0.0 1.5 6.0 6.5 3.9 2.3 4.6 2.3 0.0 0.0 0.0 0.0 1.4 4.2 1.4 0.0 0.6 0.6 0.0 0.0 0.0 0.0 0.0 0.0 0.0 0.0 0.0 0.0 0.0 0.0 0.0
0.0 0.0 0.0 0.0 0.0 0.0 0.0 0.0 0.0 0.0 0.0 0.0 0.0 0.0 0.0 0.0 0.0 0.0 0.0 0.0 0.0 0.0 0.0 0.0 0.0 0.0 0.0 0.0 0.0 0.0 0.0 0.0 0.0 0.0 0.0 0.0 0.0 0.0 0.0 0.0 0.0 0.0 0.0 0.0 0.0 0.0 0.0 0.0 0.0 0.0 0.0 0.0 0.0 0.0 0.1 2.6 7.3 3.4 0.4 1.8 0.0 0.0 1.8 0.3 0.0 1.1 3.8 4.8 1.5 3.7 12.7 10.6 3.6 0.7 1.5 0.1 1.3 1.8 0.4 0.6 0.8 0.0 0.0 0.0 0.0 0.0 0.0 0.0
0.0 0.0 0.0 0.0 0.0 0.0 0.0 0.0 0.0 0.0 0.0 0.0 0.0 0.0 0.0 0.0 0.0 0.0 0.0 0.0 0.0 0.0 0.0 0.0 0.0 0.0 0.0 0.0 0.0 0.0 0.0 0.0 0.0 0.0 0.0 0.0 0.0 0.0 0.0 0.0 0.0 0.0 0.0 0.0 0.0 0.0 0.0 0.0 0.0 0.0 0.0 0.0 0.0 0.0 0.0 0.0 7.7 9.5 5.6 0.0 0.0 0.0 1.5 2.3 3.2 5.5 12.7 12.4 2.4 0.0 12.2 15.0 2.1 0.0 0.0 4.4 4.7 3.6 0.5 0.6 0.1 0.0 0.0 0.4 0.3 0.0 0.0 0.0
0.0 0.0 0.0 0.0 0.0 0.0 0.0 0.0 0.0 0.0 0.0 0.0 0.0 0.0 0.0 0.0 0.0 0.0 0.0 0.0 0.0 0.0 0.0 0.0 0.0 0.0 0.0 0.0 0.0 0.0 0.0 0.0 0.0 0.0 0.0 0.0 0.0 0.0 0.0 0.0 0.0 0.0 0.0 0.0 0.0 1.5 0.0 0.0 0.0 0.0 0.0 0.0 1.5 2.3 0.0 0.0 8.5 10.0 0.6 0.0 0.0 0.8 3.1 3.5 4.6 6.2 8.7 2.0 0.0 0.0 3.7 12.5 12.3 1.9 4.4 4.3 6.0 5.5 5.6 3.6 0.2 1.3 0.5 1.2 0.8 1.0 1.3 0.2
0.0 0.0 0.0 0.0 0.0 0.0 0.0 0.0 0.0 0.0 0.0 0.0 0.0 0.0 0.0 0.0 0.0 0.0 0.0 0.0 9.7 0.0 0.0 0.0 0.0 0.0 0.0 0.0 0.0 0.0 0.0 0.0 0.0 0.0 0.0 0.0 0.0 0.0 0.0 0.0 0.0 0.0 0.0 0.0 5.0 0.0 0.0 0.0 0.0 0.8 0.2 1.5 3.1 0.0 0.0 0.0 6.0 3.4 0.0 0.0 0.0 0.4 0.9 1.1 4.8 6.3 5.6 10.1 12.7 5.4 1.3 11.4 12.8 3.8 0.5 4.9 7.6 8.0 7.5 4.9 4.3 3.6 2.4 2.6 3.5 1.2 0.0 0.0
0.0 0.0 0.0 0.0 0.0 0.0 0.0 0.0 0.0 0.0 0.0 0.0 0.0 0.0 0.0 0.0 0.0 0.0 0.0 6.2 0.0 0.0 0.0 0.0 0.0 0.0 0.0 0.0 0.0 0.0 0.0 0.0 0.0 0.0 0.0 0.0 0.0 0.0 0.0 0.0 0.0 0.0 0.0 0.0 0.5 0.1 0.0 0.0 0.0 0.0 0.9 5.0 0.0 0.0 0.0 0.0 4.9 0.0 0.0 0.0 0.0 0.0 0.0 1.3 5.8 8.0 9.6 12.6 13.6 9.6 4.9 14.1 14.3 6.3 3.0 9.3 9.3 10.1 8.7 6.7 5.8 4.8 4.5 3.5 2.6 1.4 1.1 0.1
0.0 0.0 0.0 0.0 0.0 0.0 0.0 0.0 0.0 0.0 0.0 0.0 0.0 0.0 0.0 0.0 0.0 0.0 0.0 12.5 0.0 0.0 0.0 0.0 0.0 0.0 0.0 0.0 0.0 0.0 0.0 0.0 0.0 0.0 0.0 0.0 0.0 0.0 0.0 0.0 0.0 0.0 0.0 0.0 0.0 0.0 0.0 0.0 0.0 0.0 2.0 0.0 1.8 0.0 0.0 0.0 0.0 0.0 0.0 0.0 0.2 1.7 2.8 0.3 5.6 8.3 12.8 17.1 13.1 8.5 5.6 10.3 18.0 10.4 11.8 12.9 13.5 14.8 11.2 8.5 6.2 4.9 4.4 1.4 2.6 2.0 1.9 1.6
0.0 0.0 0.0 0.0 0.0 0.0 0.0 0.0 0.0 0.0 0.0 0.0 0.0 0.0 0.0 0.0 0.0 0.0 12.1 0.1 0.0 0.0 0.0 0.0 0.0 0.0 0.0 0.0 0.0 0.0 0.0 0.0 0.0 0.0 0.0 0.0 0.0 0.0 0.0 0.0 0.0 0.0 0.0 0.0 1.4 0.0 0.0 0.0 0.0 0.0 0.0 0.0 0.0 0.0 0.0 0.0 0.0 0.0 3.5 3.3 4.6 6.8 5.3 9.4 11.3 8.6 14.1 17.3 11.6 6.8 8.0 8.2 18.9 13.9 12.4 12.6 13.2 13.5 12.8 13.9 11.1 7.8 4.5 4.3 3.3 3.4 3.1 3.5
0.0 0.0 0.0 0.0 0.0 0.0 0.0 0.0 0.0 0.0 0.0 0.0 0.0 0.0 0.0 0.0 0.0 0.0 0.8 0.0 0.0 0.0 0.0 0.0 0.0 0.0 0.0 0.0 0.0 0.0 0.0 0.0 0.0 0.0 0.0 0.0 0.0 0.0 0.0 5.5 5.5 8.0 5.8 5.8 4.7 0.0 3.0 2.3 0.5 0.0 0.0 0.0 0.0 1.3 0.0 0.0 0.0 0.0 1.6 4.6 14.2 15.7 14.9 18.0 14.1 18.7 17.7 18.3 12.0 7.0 7.3 13.6 13.3 10.6 11.0 9.2 9.7 9.9 11.9 8.5 10.1 5.6 4.6 3.9 4.4 4.1 4.3 4.2
0.0 0.0 0.0 0.0 0.0 0.0 0.0 0.0 0.0 0.0 0.0 0.0 0.0 0.0 0.0 0.0 12.4 0.0 0.0 0.0 1.4 0.0 0.0 0.0 0.0 0.0 0.0 0.0 0.0 0.0 0.0 0.3 0.0 0.0 0.0 0.0 0.0 1.3 0.0 0.0 0.9 4.7 11.2 6.6 6.5 7.0 4.5 2.2 0.0 0.0 0.0 0.0 0.0 6.1 6.6 7.8 2.5 2.0 6.6 12.1 16.0 19.6 20.7 22.2 19.3 16.2 16.4 12.9 7.6 9.8 8.0 14.8 11.3 8.1 9.8 7.9 6.0 4.7 3.6 3.6 4.6 4.5 4.8 5.9 6.6 5.7 5.6 5.3
0.0 0.0 0.0 0.0 0.0 0.0 0.0 0.0 0.0 0.0 0.0 0.0 0.0 0.0 0.0 0.0 0.9 1.6 1.7 0.0 0.0 0.0 0.0 0.0 0.0 0.0 0.0 0.0 0.0 0.0 0.0 0.0 0.0 0.0 0.0 0.0 0.0 2.6 0.9 0.0 0.0 4.5 6.6 3.6 9.5 11.0 12.7 12.3 4.4 2.3 5.3 0.0 0.0 1.6 5.0 7.8 6.6 7.1 3.7 8.6 15.4 16.6 21.3 24.4 21.1 22.5 20.8 18.1 13.5 9.2 16.3 16.4 16.4 15.6 7.8 5.9 2.9 3.9 2.9 3.4 2.7 1.7 3.6 6.1 5.6 5.8 5.6 6.5
0.0 0.0 0.0 0.0 0.0 0.0 0.0 0.0 0.0 0.0 0.0 0.0 0.0 0.0 0.0 0.0 0.0 0.6 0.0 0.0 0.0 0.0 0.0 0.0 0.0 0.0 0.0 0.0 0.0 0.0 0.0 1.8 0.0 0.0 0.0 0.0 3.0 3.1 5.4 4.5 0.4 2.8 4.5 12.5 10.8 10.7 9.0 9.9 0.7 0.0 0.0 0.0 0.3 0.0 0.0 5.5 6.7 3.8 3.8 4.8 14.4 16.8 13.4 20.2 17.4 17.3 17.7 17.7 17.5 16.9 16.6 14.2 14.1 6.1 4.4 1.4 2.2 3.0 3.2 2.0 4.2 5.1 7.3 8.0 8.5 8.0 7.6 7.3
0.0 0.0 0.0 0.0 0.0 0.0 0.0 0.0 0.0 0.0 0.0 0.0 0.0 0.0 0.0 0.7 0.8 0.2 1.6 0.0 0.0 1.3 0.0 0.0 0.0 0.0 0.0 0.0 0.0 0.0 0.0 1.3 0.0 0.0 1.8 1.6 3.4 4.6 2.0 4.1 5.1 3.1 10.8 13.0 11.5 14.4 9.3 10.8 0.0 0.0 0.0 2.6 1.8 0.0 1.1 0.0 15.2 7.3 7.6 15.6 13.0 7.1 12.2 17.0 14.5 12.0 14.0 16.7 19.5 14.9 15.3 12.1 5.2 1.1 9.3 5.8 3.5 5.0 4.3 4.6 5.2 7.5 9.0 9.3 9.7 8.8 8.0 7.6
0.0 0.0 0.0 0.0 0.0 0.0 0.0 0.0 0.0 0.0 0.0 0.0 0.0 0.0 0.0 0.9 0.0 0.0 0.0 0.0 0.0 0.0 1.0 2.2 2.1 3.0 3.7 3.5 0.0 3.4 1.1 0.0 1.8 0.0 3.4 2.0 5.7 5.5 4.3 4.8 0.0 3.6 0.8 7.9 11.9 10.0 15.3 12.8 1.5 2.0 1.5 2.8 0.0 0.0 0.0 0.0 0.0 8.1 14.8 12.1 5.3 2.1 9.6 16.5 21.3 18.7 18.9 22.9 20.6 16.3 18.5 18.0 16.5 18.9 10.6 7.3 10.9 8.1 7.8 7.8 7.7 10.6 10.3 10.9 10.3 9.6 9.3 8.6
0.0 0.0 0.0 0.0 0.0 0.0 0.0 0.0 0.0 0.0 0.0 0.0 0.0 0.0 0.0 0.8 0.0 0.0 0.0 0.0 0.0 0.0 0.7 0.1 0.1 0.0 4.0 2.4 3.3 5.6 1.6 4.5 0.2 0.0 2.1 1.6 7.9 0.0 5.3 7.2 0.0 0.4 1.3 1.2 10.7 9.5 7.8 15.4 5.6 0.0 0.0 0.0 0.0 0.0 3.8 0.0 0.0 5.5 9.7 0.0 15.5 18.3 18.5 14.4 18.8 23.8 24.3 24.4 22.0 18.9 18.4 17.5 16.2 17.3 12.8 14.0 13.5 12.4 11.6 10.6 12.3 12.7 12.5 12.4 11.5 10.5 9.1 7.9
0.0 0.0 0.0 0.0 0.0 0.0 0.0 0.0 0.0 0.0 0.0 0.0 0.0 0.0 0.0 0.0 0.0 0.0 0.0 0.0 0.0 1.5 0.0 1.2 2.5 0.0 0.9 3.0 5.2 0.4 3.8 6.9 3.2 2.3 5.1 3.9 8.7 4.5 7.0 7.1 5.7 2.6 2.9 2.7 9.5 6.5 5.8 15.8 11.0 0.8 0.0 0.0 0.0 4.9 13.3 9.7 4.1 0.0 0.0 8.5 6.5 12.4 17.3 19.1 18.4 18.4 18.4 22.5 23.6 23.1 19.5 21.8 16.4 15.4 13.3 14.2 12.3 12.6 12.6 13.2 13.7 13.1 12.6 12.3 12.2 11.3 10.4 10.2
0.0 0.0 0.0 0.0 0.0 0.0 0.0 0.0 0.0 0.0 0.0 0.0 0.0 0.0 0.0 0.6 0.0 0.0 0.0 0.0 0.0 0.0 1.9 1.1 0.0 2.0 0.0 1.0 1.6 6.5 0.6 1.1 1.6 2.8 2.1 3.7 5.3 1.2 9.3 2.7 9.9 7.9 5.5 3.9 8.5 0.2 12.8 4.6 15.6 5.6 0.0 1.2 10.5 6.3 10.5 9.8 15.1 12.2 12.1 13.9 12.8 14.5 12.2 14.4 16.2 18.5 19.6 22.3 22.9 23.6 24.9 20.4 13.9 9.5 12.6 12.6 12.3 12.2 12.5 14.1 13.6 13.1 12.6 12.1 11.2 11.1 10.8 10.0
0.0 0.0 0.0 0.0 0.0 0.0 0.0 0.0 0.0 0.0 0.0 0.0 0.0 0.0 0.0 0.0 0.0 0.0 0.0 0.0 0.0 0.0 0.0 0.0 0.5 2.5 0.8 2.0 2.4 0.0 2.7 0.5 0.1 4.1 2.1 5.0 6.9 11.4 6.6 9.6 8.3 12.1 6.8 2.5 8.3 10.1 13.9 10.0 15.4 9.5 8.1 7.5 8.3 4.8 5.3 6.8 7.7 10.5 12.7 15.8 14.8 17.8 20.0 20.3 21.8 14.5 18.9 21.0 23.7 24.2 25.3 18.8 12.4 4.7 11.8 10.7 10.4 12.1 12.4 13.4 13.9 13.5 13.0 12.5 12.0 10.9 9.9 10.8
0.0 0.0 0.0 0.0 0.0 0.0 0.0 0.0 0.0 0.0 0.0 0.0 0.0 0.0 0.0 0.0 0.0 0.0 0.0 0.0 0.0 0.0 0.0 0.0 0.0 0.0 0.0 0.0 0.0 0.9 2.0 4.2 1.3 2.3 3.6 8.0 6.6 7.7 7.7 3.8 7.1 9.0 12.5 12.4 13.2 4.2 11.4 10.7 12.8 14.9 9.8 7.0 3.6 4.4 1.0 0.2 4.6 6.9 10.1 13.3 12.9 15.0 16.9 19.0 23.3 20.2 18.0 18.4 17.8 19.3 22.5 20.3 9.2 7.5 8.7 9.6 10.1 11.6 12.4 12.8 14.0 13.4 12.9 12.4 11.9 11.0 10.3 10.1
0.0 0.0 0.0 0.0 0.0 0.0 0.0 0.0 0.0 0.0 0.0 0.0 0.0 0.0 0.0 0.0 0.0 0.0 0.0 0.0 0.0 0.0 0.0 0.0 0.0 0.0 0.0 0.6 1.1 1.0 2.4 5.5 3.9 5.8 3.2 6.0 10.3 9.1 5.5 4.8 5.6 7.0 5.9 12.0 12.2 5.6 5.7 15.3 14.6 9.8 6.5 4.5 9.3 8.3 1.9 2.0 7.9 9.3 10.1 10.9 14.2 18.3 17.6 18.6 18.4 17.2 20.5 19.9 21.5 21.5 23.6 19.2 11.6 6.6 8.3 9.6 10.4 11.8 12.2 12.8 13.9 13.7 13.1 12.5 12.4 12.1 11.9 11.5
0.0 0.0 0.0 0.0 0.0 0.0 0.0 0.0 0.0 0.0 0.0 0.0 0.0 0.0 0.0 0.0 0.0 0.0 0.0 0.0 0.0 0.0 0.0 0.0 0.0 0.0 0.0 0.0 0.1 2.8 0.8 9.8 2.8 4.0 5.6 3.3 11.3 4.3 4.8 4.6 5.8 9.7 12.1 14.4 15.3 7.4 14.8 8.6 11.8 15.9 16.2 13.8 11.5 11.3 10.5 10.1 10.3 9.6 12.5 13.0 14.0 14.9 16.2 17.7 18.3 18.4 21.5 20.0 19.4 22.4 27.3 22.8 13.4 8.2 9.5 9.9 12.5 13.4 13.7 13.2 12.9 14.1 13.3 12.9 12.7 12.4 12.1 11.9
0.0 0.0 0.0 0.0 0.0 0.0 0.0 0.0 0.0 0.0 0.0 0.0 0.0 0.0 0.0 0.0 0.0 0.0 0.0 0.0 0.0 0.0 0.0 0.0 0.0 0.0 0.0 0.0 0.5 0.0 0.0 3.0 7.0 4.4 6.6 9.7 12.3 6.6 5.0 5.5 6.1 6.7 7.7 6.5 7.7 9.8 14.1 12.3 13.6 17.6 21.6 23.0 22.4 21.5 17.8 16.3 13.7 9.4 9.1 10.3 13.8 18.5 18.3 18.9 21.4 19.9 23.2 19.7 18.9 22.6 23.7 17.1 13.1 12.0 12.7 13.0 14.2 14.7 13.9 13.6 13.2 13.0 13.6 13.6 13.3 12.9 12.8 12.6
0.0 0.0 0.0 0.0 0.0 0.0 0.0 0.0 0.0 0.0 0.0 0.0 0.0 0.0 0.0 0.0 0.0 0.0 0.0 0.0 0.0 0.0 0.0 0.0 0.0 0.0 0.0 0.0 1.1 0.2 1.2 0.5 3.6 8.0 11.4 9.8 9.6 6.4 5.4 5.4 5.5 6.3 6.6 7.2 10.0 11.5 14.0 10.8 10.6 14.7 17.9 18.6 16.5 14.4 8.9 8.0 10.5 15.8 14.4 14.2 15.6 16.3 17.4 18.9 18.1 19.4 22.5 20.9 22.3 20.4 19.3 19.0 17.7 16.1 15.4 15.1 15.5 16.4 15.9 15.1 15.0 14.6 13.9 13.4 13.3 13.4 13.3 13.0
0.0 0.0 0.0 0.0 0.0 0.0 0.0 0.0 0.0 0.0 0.0 0.0 0.0 0.1 1.9 0.6 0.0 0.0 0.0 0.0 0.0 0.0 0.0 0.0 0.0 0.0 1.0 0.6 3.3 2.6 0.0 1.1 3.8 10.3 12.1 12.2 10.4 4.7 5.6 4.4 5.4 5.3 6.2 7.1 8.6 9.6 13.8 14.3 15.1 14.5 15.5 14.3 12.3 12.6 10.4 10.1 13.6 11.8 13.4 15.2 15.2 17.5 19.6 20.2 20.3 21.4 17.1 21.0 24.7 18.4 17.4 20.9 19.8 17.5 15.9 16.8 16.4 16.0 15.7 15.4 15.0 14.7 14.4 14.3 14.1 13.6 12.8 13.5
0.0 0.0 0.0 0.0 0.0 0.0 0.0 0.0 0.0 0.0 0.0 0.0 0.0 0.0 0.0 0.0 0.0 1.5 0.0 0.0 0.0 0.0 0.2 0.0 0.0 0.0 0.1 3.2 3.2 7.6 4.0 3.2 6.0 12.0 10.8 10.4 9.0 8.8 8.8 4.7 4.7 4.2 5.2 5.7 6.6 13.7 16.1 16.1 16.1 17.1 16.4 14.1 13.0 12.4 10.5 10.1 9.7 10.3 12.6 13.0 16.4 15.8 17.4 20.5 20.8 16.9 17.1 21.7 23.5 18.9 17.9 20.5 18.9 16.8 16.4 16.1 16.0 16.3 15.9 15.3 14.7 14.3 14.2 14.2 14.5 14.8 14.7 14.5
0.0 0.0 0.0 0.0 0.0 0.0 0.0 0.0 0.0 0.0 0.0 0.0 0.0 0.0 0.0 0.0 2.9 1.5 0.5 0.0 0.0 0.0 0.0 4.0 1.6 0.8 1.0 0.0 2.3 7.7 5.8 11.4 11.8 12.2 12.4 11.1 12.3 11.3 11.2 9.8 3.8 3.0 4.4 5.7 6.7 8.9 15.3 14.7 15.9 16.2 15.7 13.6 12.8 12.2 9.1 11.0 11.6 12.4 14.7 13.9 13.9 15.8 17.5 17.7 17.4 16.2 17.0 19.3 17.7 17.9 18.4 19.1 16.9 16.7 16.1 15.8 15.0 15.1 14.9 14.1 14.2 15.0 15.5 15.2 15.2 15.3 15.2 15.4
0.0 0.0 0.0 0.0 0.0 0.0 0.0 0.0 0.0 0.0 0.0 0.0 0.0 0.0 0.0 0.0 0.7 0.0 0.0 0.6 1.8 0.0 0.0 0.0 1.6 1.4 1.9 1.1 2.3 8.5 8.1 5.7 9.6 12.2 10.4 12.0 13.1 11.0 9.9 12.9 12.1 3.2 4.1 12.8 13.1 7.2 15.1 15.7 13.0 15.8 18.1 16.2 12.9 10.9 11.1 11.6 12.8 13.8 13.6 14.3 14.7 15.4 15.8 16.1 17.0 16.6 16.6 17.9 17.6 18.4 19.9 20.4 15.9 14.9 15.8 14.9 14.5 14.4 14.8 15.8 15.9 15.5 15.4 15.6 15.8 15.9 16.1 16.4
0.0 0.0 0.0 0.0 0.0 0.0 0.0 0.0 0.0 0.0 0.0 0.0 0.0 0.0 0.0 0.0 0.3 0.0 0.3 0.0 0.3 1.9 1.5 3.0 0.5 0.8 0.0 1.9 1.3 5.4 4.7 4.1 5.6 7.2 3.9 7.8 12.4 8.8 12.6 12.4 5.3 12.2 11.0 13.9 15.2 15.4 14.6 16.7 15.1 16.5 19.3 17.7 12.0 12.1 12.3 12.0 12.6 15.7 15.4 15.9 16.2 17.2 20.6 18.1 19.9 16.7 18.9 21.1 19.7 20.0 22.0 21.8 17.1 15.2 15.3 15.2 15.6 16.1 16.9 16.7 16.5 16.5 15.8 15.8 16.1 16.4 16.8 16.9
0.0 0.0 0.0 0.0 0.0 0.0 0.0 0.0 0.0 0.0 0.0 0.0 0.0 0.0 0.0 0.3 0.0 0.0 1.5 0.0 0.0 0.0 0.0 0.0 0.0 2.1 1.7 2.4 6.8 7.5 6.1 5.6 5.2 4.5 4.8 4.7 4.8 5.1 5.6 5.7 6.2 12.7 13.4 13.3 15.9 15.8 15.7 16.7 17.7 18.0 19.6 18.0 12.7 12.4 13.3 13.7 15.1 19.8 20.4 17.5 16.6 16.1 16.2 15.7 15.0 14.7 15.9 16.2 20.9 23.3 22.9 17.7 17.0 15.9 17.6 17.2 16.4 16.4 16.8 16.5 16.8 16.4 15.6 15.6 16.4 16.9 16.9 16.7